Location: Wien
(48.2082°N, 16.3738°E)
Time: 10:31:18
(UTC+02:00)

Transit 4A - Pass Details

Date: 25 February 2024
Orbit: 871 x 971 km, 66.8° (Epoch: 24 April)

Event Time Altitude Azimuth Distance (km) Brightness Sun altitude
Exits shadow 05:01:14 10° 319° (NW) 2,593 9.9 -18.0°
Maximum altitude 05:04:09 14° 348° (NNW) 2,322 9.9 -17.5°
Drops below altitude 10° 05:07:05 10° 18° (NNE) 2,569 10.5 -17.0°
Sets 05:11:02 0° 44° (NE) 3,492 11.7 -16.3°
